STARLINK-5498 (55633 NORAD) Tracking and Keplerian Element Data

This shows tracking and keplerian element data for the satellite.

Feedback or suggestion? Click here.




ElementValue
Catalog55633
NameSTARLINK-5498
Epoch Orbit130
Epoch Day62.91667824
Epoch Year2023
RAAN110.2042
Inclination69.9997
Eccentricity0.0003517
Argument of Perigee272.0722
Mean Anonmoly319.3066
Mean Motion15.74885879
Decay Rate-0.01021196
L11 55633U 23021F 23062.91667824 -.01021196 00000+0 -76127-2 0 9992
L22 55633 69.9997 110.2042 0003517 272.0722 319.3066 15.74885879 1305



Live tracking and technical data element details for STARLINK-5498 (NORAD 55633). STARLINK-5498 can be tracked NOW for your location showing map with azimuth and elevation plus other details from your city location.







IsCatalogInMostPopularTable: catalog: 55633, numindb: 1
Update: records affected: 1



GetName: 55633 STARLINK-5498

Hit Count: updated at: Mon, 20 Mar 2023 12:39:26 GMT